Regional Weather Roundup
Issued by NWS

Home | Current Version | Previous Version | Graphics & Text | Print | Product List | Glossary On
Versions: 1 2 3 4 5 6 7 8 9 10 11 12 13 14 15 16 17 18 19 20 21 22 23 24 25 26 27 28 29 30 31 32 33 34 35 36 37 38 39 40 41 42 43 44 45 46 47 48 49 50
000
ASUS43 KDTX 260310
RWRMI
MICHIGAN HOURLY REGIONAL WEATHER ROUNDUP
NATIONAL WEATHER SERVICE DETROIT/PONTIAC MI
1100 PM EDT SAT APR 25 2015

NOTE: "FAIR" INDICATES FEW OR NO CLOUDS BELOW 12,000 FEET WITH NO
SIGNIFICANT WEATHER AND/OR OBSTRUCTION TO VISIBILITY.

MIZ047>049-052>055-059>063-066>070-074>076-081>083-260400-
SOUTHEAST LOWER MICHIGAN

CITY           SKY/WX    TMP DP  RH WIND       PRES   REMARKS
ADRIAN         CLOUDY    43  30  60 NE7       29.80S
ALMA           PTCLDY    38  24  59 NE8       29.89S WCI  32
ANN ARBOR      MOCLDY    45  27  49 NE13      29.81R
BAD AXE        CLEAR     33  25  71 N5        29.89S WCI  29
CARO           CLEAR     35  25  65 CALM      29.87S
DETROIT CITY   PTCLDY    42  24  49 N13       29.83S
DETROIT        CLOUDY    45  25  45 N14       29.82R
FLINT          MOCLDY    42  25  50 NE12      29.86R
GROSSE ILE     CLOUDY    45  27  49 NE10      29.80S
HILLSDALE      CLOUDY    44  32  62 CALM      29.79S
HOWELL         MOCLDY    43  25  49 NE8       29.83R

CITY           SKY/WX    TMP DP  RH WIND       PRES   REMARKS
JACKSON        MOCLDY    45  23  42 NE12      29.81R
LAMBERTVILLE   CLOUDY    45  30  57 NE7       29.80R
LANSING        CLOUDY    42  26  53 NE14      29.85R
LAPEER         FAIR      37  25  63 NE9       29.86S WCI  30
MASON          MOCLDY    43  26  50 NE8       29.84R
MONROE         CLOUDY    45  28  53 NE8G16    29.79S
PONTIAC        CLOUDY    40  25  55 NE8       29.82S WCI  34
PORT HOPE        N/A     39  27  62 N7        29.87F WCI  34
PORT HURON     CLEAR     39  28  65 N9        29.84F WCI  33
TRI CITIES     PTCLDY    37  28  70 N9        29.89F WCI  30
MIDLAND        FAIR      39  25  58 N3        29.89S
TROY           MOCLDY    42  25  50 N8G18     29.85S
SAGINAW HB     PTCLDY    36  27  69 NE5       29.87F WCI  32
$$
MIZ043>046-050>051-056>058-064>065-071>073-077>080-260400-
SOUTHWEST LOWER MICHIGAN

CITY           SKY/WX    TMP DP  RH WIND       PRES   REMARKS
BATTLE CREEK   CLOUDY    46  27  47 NE10      29.82R
BENTON HARBOR  CLOUDY    40  35  83 CALM      29.82S
BIG RAPIDS     CLEAR     41  23  49 CALM      29.89R
COLDWATER      CLOUDY    44  32  63 N5        29.80S
FREMONT        FAIR      43  16  33 E7        29.87R
HOLLAND        CLOUDY    49  26  41 E8        29.85R
GRAND RAPIDS   CLOUDY    45  25  45 NE12      29.85S
IONIA          CLOUDY    42  26  52 NE14      29.85S
KALAMAZOO      CLOUDY    47  27  45 NE8       29.83R
LUDINGTON      CLEAR     42  25  50 E3        29.89R
MARSHALL       CLOUDY    45  23  42 NE5       29.81R
MOUNT PLEASANT FAIR      38  24  57 CALM      29.89R
MUSKEGON       MOCLDY    47  19  33 E9        29.87R
SOUTH HAVEN    CLOUDY    48  28  44 NE7       29.83R
$$
MIZ016>042-260400-
NORTHERN LOWER MICHIGAN

CITY           SKY/WX    TMP DP  RH WIND       PRES   REMARKS
BEAVER ISLAND  CLEAR     38  22  50 N3        29.97S
BELLAIRE       CLEAR     37  29  74 CALM      29.93R
CADILLAC       CLEAR     39  22  51 E3        29.89S
CHARLEVOIX     CLEAR     38  28  67 N8        29.97S WCI  33
FRANKFORT      CLEAR     46  20  36 NE5       29.91R
GAYLORD        CLEAR     40  23  50 N5        29.91S
GRAYLING       CLEAR     31  22  69 CALM      29.92R
HARBOR SPRINGS CLEAR     38  24  56 N6        29.94S WCI  33
HOUGHTON LAKE  CLEAR     34  27  75 CALM      29.90S
MANISTEE       CLEAR     43  19  39 E5        29.90R
OSCODA         PTCLDY    32  23  70 CALM      29.91R
PELLSTON       PTCLDY    35  25  66 NE5       29.95S WCI  31
ROGERS CITY    CLOUDY    42  25  50 NW8       29.94F
TRAVERSE CITY  CLEAR     36  29  75 CALM      29.91R
$$
MIZ007>008-015-260400-
EASTERN UPPER MICHIGAN

CITY           SKY/WX    TMP DP  RH WIND       PRES   REMARKS
KINROSS        PTCLDY    36  25  64 N10       29.95R WCI  28
MACKINAC ISLAN CLOUDY    39  24  53 NW9       29.95S WCI  33
NEWBERRY       CLEAR     32  23  68 NW5       29.97S WCI  28
S. S. MARIE    CLEAR     33  24  69 W5        29.95R WCI  29
MUNISING         N/A     32  26  78 CALM      30.01R
$$
MIZ004>006-011>014-085-260400-
CENTRAL UPPER MICHIGAN

CITY           SKY/WX    TMP DP  RH WIND       PRES   REMARKS
MANISTIQUE     CLEAR     34  22  62 N8        29.98S WCI  27
ESCANABA       CLEAR     37  18  44 N7        29.99R WCI  32
MENOMINEE      CLEAR     39  21  48 NE9       29.96R WCI  33
SAWYER-GWINN   CLEAR     32  18  57 N7        29.99S WCI  25
$$
MIZ001>003-009>011-084-260400-
WESTERN UPPER MICHIGAN

CITY           SKY/WX    TMP DP  RH WIND       PRES   REMARKS
IRON MOUNTAIN  CLEAR     36  17  46 N3        29.97R
HOUGHTON       CLEAR     31  22  69 NW3       30.02R
COPPER HARBOR    N/A     31  24  75 CALM      30.03R
IRONWOOD       CLEAR     34  27  75 CALM      30.00R
$$

ABBREVIATIONS USED IN REMARKS
   TC - TEMPERATURE IN CELSIUS
  WCI - WIND CHILL INDEX
   HX - HEAT INDEX
  VSB - VISIBILITY



USA.gov is the U.S. government's official web portal to all federal, state and local government web resources and services.